Hollywood, FL

4:33 PM EDT on October 19, 2019 (GMT -0400)
North Perry

Weather History for KHWO - August, 2019

Change the Weather History Date:

Sunday, August 25, 2019

  Actual Average (KFLL) Record (KFLL)
Temperature  
Mean Temperature 86 °F 84 °F  
Max Temperature 93 °F 90 °F 98 °F (1924)
Min Temperature 80 °F 78 °F 69 °F (1920)
Degree Days  
Heating Degree Days 0 0  
Month to date heating degree days 0  
Since 1 June heating degree days 0  
Since 1 July heating degree days 0  
Cooling Degree Days 20 19  
Month to date cooling degree days 494  
Year to date cooling degree days 3053  
Since 1 June cooling degree days 1635  
Growing Degree Days 36 (Base 50)    
Moisture  
Dew Point 76 °F    
Average Humidity 74    
Maximum Humidity 90    
Minimum Humidity 57    
Precipitation  
Precipitation 0.00 in 0.26 in 2.56 in (2017)
Month to date precipitation 5.83  
Year to date precipitation 39.46  
Snow  
Snow 0.00 in - - ()
Month to date snowfall  
Since 1 June snowfall  
Since 1 July snowfall  
Snow Depth -    
Sea Level Pressure  
Sea Level Pressure 29.95 in    
Wind  
Wind Speed 5 mph (SSW)    
Max Wind Speed 14 mph    
Max Gust Speed 16 mph    
Visibility 10 miles    
Events Thunderstorm    
T = Trace of Precipitation, MM = Missing Value Source: NWS Daily Summary

Daily Weather History Graph

Daily Weather History Graph

Search for Another Location

Airport or City:

Astronomy

Aug. 25, 2019 Rise Set
Actual Time 6:58 AM EDT 7:47 PM EDT
Civil Twilight 6:34 AM EDT 8:11 PM EDT
Nautical Twilight 6:06 AM EDT 8:39 PM EDT
Astronomical Twilight 5:37 AM EDT 9:07 PM EDT
Moon 1:48 AM EDT (8/25) 3:47 PM EDT (8/25)
Length of Visible Light 13h 36m
Length of Day
12h 49m
Waning Crescent, 29% of the Moon is Illuminated
Aug 25
Waning Crescent
Aug 30
New
Sep 5
First Quarter
Sep 14
Full
Sep 21
Last Quarter

Hourly Weather History & Observations

Time (EDT) Temp. Heat Index Dew Point Humidity Pressure Visibility Wind Dir Wind Speed Gust Speed Precip Events Conditions
12:53 AM 82.0 °F 90.2 °F 77.0 °F 85% 29.94 in 10.0 mi South 4.6 mph - N/A   Clear
1:53 AM 82.0 °F 90.2 °F 77.0 °F 85% 29.94 in 10.0 mi South 4.6 mph - N/A   Clear
2:53 AM 82.0 °F 90.2 °F 77.0 °F 85% 29.93 in 10.0 mi SSW 3.5 mph - N/A   Clear
3:53 AM 81.0 °F 87.9 °F 77.0 °F 88% 29.92 in 10.0 mi South 3.5 mph - N/A   Clear
4:53 AM 81.0 °F 87.9 °F 77.0 °F 88% 29.91 in 10.0 mi Calm Calm - N/A   Clear
5:53 AM 80.1 °F 85.4 °F 75.9 °F 87% 29.92 in 10.0 mi SSE 3.5 mph - N/A   Clear
6:53 AM 80.1 °F 85.8 °F 77.0 °F 90% 29.93 in 10.0 mi SSW 3.5 mph - N/A   Clear
7:53 AM 82.0 °F 90.2 °F 77.0 °F 85% 29.95 in 10.0 mi South 4.6 mph - N/A   Scattered Clouds
8:53 AM 84.9 °F 95.3 °F 77.0 °F 77% 29.97 in 10.0 mi SSW 6.9 mph - N/A   Clear
9:53 AM 88.0 °F 98.5 °F 75.9 °F 67% 29.98 in 10.0 mi WSW 9.2 mph - N/A   Clear
10:53 AM 90.0 °F 100.2 °F 75.0 °F 61% 29.97 in 10.0 mi SW 10.4 mph - N/A   Clear
11:53 AM 91.9 °F 103.2 °F 75.0 °F 58% 29.97 in 10.0 mi West 9.2 mph - N/A   Scattered Clouds
12:15 PM 91.0 °F 100.4 °F 73.9 °F 57% 29.96 in 10.0 mi SW 13.8 mph - N/A Thunderstorm Scattered Clouds
12:53 PM 86.0 °F 96.0 °F 75.9 °F 72% 29.97 in 10.0 mi South 5.8 mph 16.1 mph N/A Thunderstorm Partly Cloudy
1:16 PM 86.0 °F 95.1 °F 75.0 °F 70% 29.96 in 10.0 mi South 6.9 mph - N/A   Clear
1:53 PM 84.9 °F 93.3 °F 75.0 °F 72% 29.96 in 10.0 mi Variable 4.6 mph - N/A   Scattered Clouds
2:53 PM 90.0 °F 99.0 °F 73.9 °F 59% 29.94 in 10.0 mi WSW 11.5 mph - N/A   Clear
3:53 PM 90.0 °F 100.2 °F 75.0 °F 61% 29.93 in 10.0 mi Variable 5.8 mph - N/A   Partly Cloudy
4:53 PM 86.0 °F 92.2 °F 72.0 °F 63% 29.93 in 10.0 mi NNW 10.4 mph - N/A   Mostly Cloudy
5:04 PM 86.0 °F 92.2 °F 72.0 °F 63% 29.93 in 10.0 mi North 8.1 mph - N/A Thunderstorm Mostly Cloudy
5:44 PM 87.1 °F 94.5 °F 73.0 °F 63% 29.93 in 10.0 mi Calm Calm - N/A   Scattered Clouds
5:53 PM 87.1 °F 94.5 °F 73.0 °F 63% 29.93 in 10.0 mi Calm Calm - N/A   Partly Cloudy
6:53 PM 86.0 °F 95.1 °F 75.0 °F 70% 29.93 in 10.0 mi East 5.8 mph - 0.00 in Thunderstorm Mostly Cloudy
7:38 PM 82.9 °F 90.8 °F 75.9 °F 79% 29.93 in 10.0 mi SE 8.1 mph - N/A   Partly Cloudy
7:53 PM 82.9 °F 90.8 °F 75.9 °F 79% 29.92 in 10.0 mi South 4.6 mph - N/A   Partly Cloudy
8:53 PM 82.9 °F 91.8 °F 77.0 °F 82% 29.95 in 10.0 mi South 3.5 mph - N/A   Partly Cloudy
9:53 PM 82.9 °F 91.8 °F 77.0 °F 82% 29.97 in 10.0 mi Calm Calm - N/A   Partly Cloudy
10:53 PM 82.0 °F 90.2 °F 77.0 °F 85% 29.98 in 10.0 mi WSW 3.5 mph - N/A   Clear
11:53 PM 82.0 °F 89.4 °F 75.9 °F 82% 29.97 in 10.0 mi SW 4.6 mph - N/A   Clear